RH
34 35 35 35 35 36 38 39 40 40 40 41 41 41 41 41 42 43 43 43 43 43 42 42 41 40 39 38 38 39 40 42 44 46 47 48 49 50 51 52 55 57
35 36 36 37 38 38 39 40 41 42 43 43 44 44 45 45 46 46 46 46 47 47 47 47 46 45 44 43 43 44 45 46 46 47 48 49 50 52 52 54 57 58
37 38 38 39 39 40 42 43 43 44 45 47 47 48 48 48 48 48 48 48 49 49 50 49 49 48 48 48 49 50 50 50 50 50 50 50 52 53 55 57 60 61
38 40 41 41 42 43 44 45 46 47 48 48 49 51 51 50 50 49 49 50 50 51 52 52 51 51 52 53 55 55 56 57 56 55 54 54 54 55 57 60 62 63
40 41 43 44 45 46 48 48 49 50 50 50 52 54 54 54 53 52 52 52 53 53 54 54 54 55 56 58 60 61 62 62 61 60 59 58 58 58 60 63 64 66
41 44 46 47 49 50 51 51 52 53 53 53 55 56 57 58 57 57 56 56 55 55 56 56 56 58 60 63 65 66 66 66 65 64 63 62 62 61 62 65 67 69
43 46 47 49 50 52 53 53 54 55 55 56 57 57 59 60 61 61 61 60 60 59 58 58 58 60 63 67 68 69 70 71 70 68 67 66 65 65 65 68 71 74
46 48 50 51 52 53 55 55 55 56 57 58 58 58 60 62 62 64 64 64 63 62 62 61 61 62 65 69 71 72 74 75 74 73 72 70 69 69 69 71 73 75
49 51 53 54 55 56 57 57 57 58 59 60 60 61 63 64 65 66 67 68 67 65 65 65 65 66 69 72 74 75 77 78 78 77 76 75 74 73 73 73 74 74
54 56 56 56 58 60 61 61 61 62 62 62 63 64 65 67 68 70 71 71 71 70 70 70 70 72 74 75 76 78 80 81 81 81 80 80 79 78 77 77 79 79
60 60 60 61 63 65 65 65 65 65 65 66 67 68 69 71 73 74 75 75 75 75 75 75 75 76 78 78 79 81 83 83 84 84 84 83 83 82 82 83 84 84
66 66 67 68 69 69 69 69 69 69 70 71 72 73 73 74 77 78 79 80 79 79 79 79 79 80 81 82 84 85 86 87 87 87 86 86 85 85 86 87 88 88
72 73 74 74 74 74 74 74 75 75 76 76 77 78 77 79 82 83 84 83 83 83 83 83 84 85 85 86 87 88 89 89 89 88 88 88 88 88 89 89 89 89
77 77 78 77 78 78 79 80 80 80 80 80 81 81 82 85 87 87 87 86 86 87 87 88 88 89 90 90 91 91 92 92 91 90 90 90 90 90 90 90 90 90
79 79 79 79 79 79 80 82 82 82 83 83 85 86 88 90 90 90 90 90 90 91 91 92 92 92 93 93 93 93 93 93 92 92 92 91 91 91 91 91 91 91
83 82 82 82 83 83 84 85 85 86 86 86 87 88 89 90 92 93 93 93 93 93 93 94 94 94 95 95 95 95 94 94 94 94 93 93 93 92 92 92 92 92
87 87 87 88 88 89 89 89 90 90 90 91 90 90 90 92 93 95 95 95 95 95 95 95 95 95 95 96 96 96 96 96 95 95 95 94 93 93 93 93 93 94
89 89 90 90 91 91 92 92 92 93 93 94 94 94 94 95 95 96 97 97 96 97 97 97 97 97 97 97 97 97 97 97 97 96 96 95 94 94 94 94 95 95
90 90 91 91 92 93 93 94 95 95 96 96 97 97 98 98 98 98 98 98 98 98 99 99 99 99 99 99 99 99 99 98 98 98 97 95 95 95 95 96 96 96
90 90 90 91 92 92 94 95 96 97 98 98 98 99 99 98 98 98 98 98 98 98 99 99 99 100 100 100 100 100 100 100 99 98 97 97 97 97 98 98 98 97
90 90 90 90 91 92 93 95 96 98 98 99 99 98 98 98 97 97 97 97 97 97 97 98 98 99 100 100 100 100 100 100 99 97 96 98 99 99 99 99 99 100
90 90 91 92 93 94 95 96 97 97 98 98 98 98 98 98 97 97 97 97 97 97 97 97 98 99 100 101 101 101 100 100 100 98 96 96 98 99 100 100 101 102
91 92 93 94 95 96 97 97 97 98 98 99 99 98 98 98 98 98 98 98 98 98 98 97 97 98 100 100 101 101 100 100 100 100 98 97 96 97 99 100 101 102
93 94 95 96 97 98 98 98 98 99 98 99 99 98 98 98 99 98 99 98 98 97 96 96 96 98 99 100 101 101 100 101 101 100 99 98 97 97 98 99 100 102
95 96 98 98 99 99 99 99 99 99 99 99 99 99 99 99 99 99 98 96 95 95 95 96 98 100 101 101 100 100 99 99 99 98 97 97 97 97 97 97 98 99
98 99 99 99 99 99 99 99 99 99 99 99 98 98 97 97 97 96 95 94 95 96 98 99 100 100 100 98 97 97 97 97 97 96 96 96 97 97 97 97 98 98